User: anonymous   Login
Location: Newark
(34.9756°N, 138.3828°E)
Time: 03:25:55
(UTC+00:00)
Language:

N. Korean satellite - Orbit

View from above orbital plane
View from above orbital plane
View from above satellite
View from above satellite

Ground track
Ground track

The orbit data is extracted from the following two-line orbital elements,

1 39026U 12072A   20023.51519351 +.00000741 +00000-0 +28938-4 0  9995
2 39026 097.2175 024.7147 0038845 045.1164 315.3218 15.28294084394953
Epoch (UTC): 23 January 2020 12:21:52
Eccentricity: 0.0038845
inclination: 97.2175°
perigee height: 454 km
apogee height: 507 km
right ascension of ascending node: 24.7147°
argument of perigee: 45.1164°
revolutions per day: 15.28294084
mean anomaly at epoch: 315.3218°
orbit number at epoch: 39495

The dashed part of the orbit path shows where the satellite is in the earth's shadow,  

DLR